Location: Antioch
(38.0049°N, 121.8058°W)
Time: 06:14:31
(UTC+00:00)

Cosmos 2084 - Pass Details

Date: 11 February 2026
Orbit: 537 x 562 km, 62.8° (Epoch: 5 March)

Event Time Altitude Azimuth Distance (km) Brightness Sun altitude
Exits shadow 13:51:17 22° 301° (WNW) 1,200 4.5 -14.4°
Maximum altitude 13:53:26 42° 242° (WSW) 773 3.7 -14.0°
Drops below altitude 10° 13:57:15 10° 170° (S) 1,789 6.1 -13.2°
Sets 13:59:30 0° 164° (SSE) 2,674 7.2 -12.8°
